Location: Corralito
(10.2667°N, 66.9500°W)
Time: 13:18:48
(UTC+00:00)

FALCON 9 R/B - Pass Details

Date: 12 December 2023
Orbit: 190 x 12910 km, 27.0° (Epoch: 20 February)

Event Time Altitude Azimuth Distance (km) Brightness Sun altitude
Rises 02:13:37 0° 234° (SW) 8,277 7.5 -57.0°
Reaches altitude 10° 02:17:42 10° 232° (SW) 8,186 7.3 -57.9°
Enters shadow 03:23:57 85° 142° (SE) 12,809 7.3 -71.3°
Exits shadow 04:26:25 58° 58° (ENE) 13,185 7.4 -77.2°
Drops below altitude 10° 05:16:21 10° 64° (ENE) 10,525 7.5 -71.7°
Sets 05:22:32 0° 65° (ENE) 10,355 7.6 -70.6°
